PWSweather.com
Personal Weather Stations
Station Observations
GRD01
Warsaw, LesznoPL 05-084

WarsawLesznoPL 05-084

Lat: 52.257404, Lon: 20.564847

Elevation: 298

Station Type: WH3080

http://pogoda.kampinos.waw.pl

High Low Average
Temperature 74.1°F23.4°C 46.8°F8.2°C 61.8°F16.6°C
Dew Point 51.2°F10.7°C 32.4°F0.2°C 41.3°F5.2°C
Winds 21.3 mph 34.3 kmh Calm Calm 7.0 mph W11.3 kmh W
Wind Gusts 31.1 mph50.1 kmh 1.6 mph2.6 kmh 13.0 mph20.9 kmh
Humidity 68% 28% 49%
Pressure 29.79 in1008.8 mb 29.66 in1004.4 mb -
Precipitation 0.00 in0.0 mm - -
Hour Temp Dew Point Humidity Winds Wind Gusts Pressure Precip Precip Rate Daily Precip Total
12:00 AM 50.2°F10.1°C 39.6°F4.2°C 67% 0.7 mph S1.1 kmh S 2.2 mph3.5 kmh 29.79 in1008.8 mb 0.00 in0.0 mm 0.00 in0.0 mm 0.00 in0.0 mm
12:15 AM 50.2°F10.1°C 39.6°F4.2°C 67% 1.6 mph S2.6 kmh S 2.2 mph3.5 kmh 29.79 in1008.8 mb 0.00 in0.0 mm 0.00 in0.0 mm 0.00 in0.0 mm
12:30 AM 50.9°F10.5°C 39.5°F4.2°C 65% 1.6 mph S2.6 kmh S 2.2 mph3.5 kmh 29.78 in1008.5 mb 0.00 in0.0 mm 0.00 in0.0 mm 0.00 in0.0 mm
12:45 AM 52.9°F11.6°C 40.6°F4.8°C 63% 0.7 mph SSE1.1 kmh SSE 3.1 mph5.0 kmh 29.77 in1008.1 mb 0.00 in0.0 mm 0.00 in0.0 mm 0.00 in0.0 mm
01:00 AM 53.6°F12.0°C 40.9°F4.9°C 62% 0.7 mph SSE1.1 kmh SSE 3.8 mph6.1 kmh 29.77 in1008.1 mb 0.00 in0.0 mm 0.00 in0.0 mm 0.00 in0.0 mm
01:15 AM 53.8°F12.1°C 41.1°F5.1°C 62% 0.7 mph ESE1.1 kmh ESE 3.8 mph6.1 kmh 29.76 in1007.8 mb 0.00 in0.0 mm 0.00 in0.0 mm 0.00 in0.0 mm
01:30 AM 53.6°F12.0°C 40.9°F4.9°C 62% 1.6 mph E2.6 kmh E 4.5 mph7.2 kmh 29.75 in1007.5 mb 0.00 in0.0 mm 0.00 in0.0 mm 0.00 in0.0 mm
01:45 AM 53.6°F12.0°C 40.9°F4.9°C 62% 3.1 mph WSW5.0 kmh WSW 5.4 mph8.7 kmh 29.73 in1006.8 mb 0.00 in0.0 mm 0.00 in0.0 mm 0.00 in0.0 mm
02:00 AM 53.6°F12.0°C 40.9°F4.9°C 62% 2.2 mph SW3.5 kmh SW 5.4 mph8.7 kmh 29.73 in1006.8 mb 0.00 in0.0 mm 0.00 in0.0 mm 0.00 in0.0 mm
02:15 AM 53.4°F11.9°C 40.7°F4.8°C 62% 0.7 mph SW1.1 kmh SW 3.8 mph6.1 kmh 29.73 in1006.8 mb 0.00 in0.0 mm 0.00 in0.0 mm 0.00 in0.0 mm
02:30 AM 53.4°F11.9°C 40.7°F4.8°C 62% 3.8 mph S6.1 kmh S 6.0 mph9.7 kmh 29.72 in1006.4 mb 0.00 in0.0 mm 0.00 in0.0 mm 0.00 in0.0 mm
02:45 AM 53.8°F12.1°C 40.6°F4.8°C 61% 3.8 mph S6.1 kmh S 6.0 mph9.7 kmh 29.72 in1006.4 mb 0.00 in0.0 mm 0.00 in0.0 mm 0.00 in0.0 mm
03:00 AM 54.0°F12.2°C 40.8°F4.9°C 61% 0.7 mph SW1.1 kmh SW 6.9 mph11.1 kmh 29.71 in1006.1 mb 0.00 in0.0 mm 0.00 in0.0 mm 0.00 in0.0 mm
03:15 AM 53.6°F12.0°C 40.5°F4.7°C 61% 3.1 mph S5.0 kmh S 4.5 mph7.2 kmh 29.71 in1006.1 mb 0.00 in0.0 mm 0.00 in0.0 mm 0.00 in0.0 mm
03:30 AM 53.4°F11.9°C 40.3°F4.6°C 61% 3.8 mph SW6.1 kmh SW 6.0 mph9.7 kmh 29.70 in1005.8 mb 0.00 in0.0 mm 0.00 in0.0 mm 0.00 in0.0 mm
03:45 AM 53.6°F12.0°C 40.5°F4.7°C 61% 3.8 mph SW6.1 kmh SW 8.3 mph13.4 kmh 29.70 in1005.8 mb 0.00 in0.0 mm 0.00 in0.0 mm 0.00 in0.0 mm
04:00 AM 53.8°F12.1°C 40.6°F4.8°C 61% 3.1 mph W5.0 kmh W 8.3 mph13.4 kmh 29.70 in1005.8 mb 0.00 in0.0 mm 0.00 in0.0 mm 0.00 in0.0 mm
04:15 AM 53.4°F11.9°C 40.3°F4.6°C 61% 1.6 mph S2.6 kmh S 3.1 mph5.0 kmh 29.70 in1005.8 mb 0.00 in0.0 mm 0.00 in0.0 mm 0.00 in0.0 mm
04:30 AM 52.7°F11.5°C 40.0°F4.4°C 62% 2.2 mph SSW3.5 kmh SSW 3.8 mph6.1 kmh 29.70 in1005.8 mb 0.00 in0.0 mm 0.00 in0.0 mm 0.00 in0.0 mm
04:45 AM 52.2°F11.2°C 39.9°F4.4°C 63% 1.6 mph S2.6 kmh S 3.1 mph5.0 kmh 29.69 in1005.4 mb 0.00 in0.0 mm 0.00 in0.0 mm 0.00 in0.0 mm
05:00 AM 52.2°F11.2°C 40.3°F4.6°C 64% 3.1 mph S5.0 kmh S 3.8 mph6.1 kmh 29.69 in1005.4 mb 0.00 in0.0 mm 0.00 in0.0 mm 0.00 in0.0 mm
05:15 AM 52.3°F11.3°C 40.9°F4.9°C 65% 0.7 mph S1.1 kmh S 4.5 mph7.2 kmh 29.69 in1005.4 mb 0.00 in0.0 mm 0.00 in0.0 mm 0.00 in0.0 mm
05:30 AM 52.9°F11.6°C 41.8°F5.4°C 66% 2.2 mph SSW3.5 kmh SSW 3.8 mph6.1 kmh 29.69 in1005.4 mb 0.00 in0.0 mm 0.00 in0.0 mm 0.00 in0.0 mm
05:45 AM 53.4°F11.9°C 43.1°F6.2°C 68% 1.6 mph S2.6 kmh S 5.4 mph8.7 kmh 29.69 in1005.4 mb 0.00 in0.0 mm 0.00 in0.0 mm 0.00 in0.0 mm
06:00 AM 54.5°F12.5°C 43.0°F6.1°C 65% 3.8 mph W6.1 kmh W 8.3 mph13.4 kmh 29.70 in1005.8 mb 0.00 in0.0 mm 0.00 in0.0 mm 0.00 in0.0 mm
06:15 AM 56.1°F13.4°C 44.5°F6.9°C 65% 4.5 mph SW7.2 kmh SW 9.2 mph14.8 kmh 29.69 in1005.4 mb 0.00 in0.0 mm 0.00 in0.0 mm 0.00 in0.0 mm
06:30 AM 57.4°F14.1°C 45.3°F7.4°C 64% 3.1 mph SW5.0 kmh SW 8.3 mph13.4 kmh 29.69 in1005.4 mb 0.00 in0.0 mm 0.00 in0.0 mm 0.00 in0.0 mm
06:45 AM 58.5°F14.7°C 46.3°F7.9°C 64% 4.5 mph SW7.2 kmh SW 11.4 mph18.3 kmh 29.68 in1005.1 mb 0.00 in0.0 mm 0.00 in0.0 mm 0.00 in0.0 mm
07:00 AM 59.5°F15.3°C 47.3°F8.5°C 64% 3.8 mph W6.1 kmh W 12.1 mph19.5 kmh 29.69 in1005.4 mb 0.00 in0.0 mm 0.00 in0.0 mm 0.00 in0.0 mm
07:15 AM 60.8°F16.0°C 48.1°F8.9°C 63% 4.5 mph SW7.2 kmh SW 9.8 mph15.8 kmh 29.68 in1005.1 mb 0.00 in0.0 mm 0.00 in0.0 mm 0.00 in0.0 mm
07:30 AM 61.7°F16.5°C 48.5°F9.2°C 62% 10.7 mph WSW17.2 kmh WSW 13.0 mph20.9 kmh 29.69 in1005.4 mb 0.00 in0.0 mm 0.00 in0.0 mm 0.00 in0.0 mm
07:45 AM 62.8°F17.1°C 49.1°F9.5°C 61% 7.6 mph WSW12.2 kmh WSW 13.0 mph20.9 kmh 29.69 in1005.4 mb 0.00 in0.0 mm 0.00 in0.0 mm 0.00 in0.0 mm
08:00 AM 63.7°F17.6°C 46.7°F8.2°C 54% 12.1 mph W19.5 kmh W 17.4 mph28.0 kmh 29.69 in1005.4 mb 0.00 in0.0 mm 0.00 in0.0 mm 0.00 in0.0 mm
08:15 AM 64.8°F18.2°C 47.7°F8.7°C 54% 3.8 mph WNW6.1 kmh WNW 15.9 mph25.6 kmh 29.69 in1005.4 mb 0.00 in0.0 mm 0.00 in0.0 mm 0.00 in0.0 mm
08:30 AM 66.2°F19.0°C 48.0°F8.9°C 52% 9.8 mph W15.8 kmh W 15.2 mph24.5 kmh 29.69 in1005.4 mb 0.00 in0.0 mm 0.00 in0.0 mm 0.00 in0.0 mm
08:45 AM 67.5°F19.7°C 49.2°F9.6°C 52% 8.3 mph WSW13.4 kmh WSW 13.6 mph21.9 kmh 29.69 in1005.4 mb 0.00 in0.0 mm 0.00 in0.0 mm 0.00 in0.0 mm
09:00 AM 69.3°F20.7°C 50.4°F10.2°C 51% 9.2 mph WNW14.8 kmh WNW 15.2 mph24.5 kmh 29.68 in1005.1 mb 0.00 in0.0 mm 0.00 in0.0 mm 0.00 in0.0 mm
09:15 AM 70.7°F21.5°C 51.1°F10.6°C 50% 7.6 mph WNW12.2 kmh WNW 16.8 mph27.0 kmh 29.69 in1005.4 mb 0.00 in0.0 mm 0.00 in0.0 mm 0.00 in0.0 mm
09:30 AM 70.5°F21.4°C 49.9°F9.9°C 48% 10.7 mph NW17.2 kmh NW 19.7 mph31.7 kmh 29.70 in1005.8 mb 0.00 in0.0 mm 0.00 in0.0 mm 0.00 in0.0 mm
09:45 AM 70.5°F21.4°C 49.3°F9.6°C 47% 7.6 mph NW12.2 kmh NW 19.0 mph30.6 kmh 29.70 in1005.8 mb 0.00 in0.0 mm 0.00 in0.0 mm 0.00 in0.0 mm
10:00 AM 71.4°F21.9°C 49.0°F9.4°C 45% 7.6 mph WNW12.2 kmh WNW 15.2 mph24.5 kmh 29.69 in1005.4 mb 0.00 in0.0 mm 0.00 in0.0 mm 0.00 in0.0 mm
10:15 AM 71.8°F22.1°C 48.7°F9.3°C 44% 14.5 mph WNW23.3 kmh WNW 18.3 mph29.5 kmh 29.69 in1005.4 mb 0.00 in0.0 mm 0.00 in0.0 mm 0.00 in0.0 mm
10:30 AM 71.4°F21.9°C 48.4°F9.1°C 44% 4.5 mph N7.2 kmh N 22.8 mph36.7 kmh 29.69 in1005.4 mb 0.00 in0.0 mm 0.00 in0.0 mm 0.00 in0.0 mm
10:45 AM 71.6°F22.0°C 49.7°F9.8°C 46% 17.4 mph NNW28.0 kmh NNW 25.9 mph41.7 kmh 29.69 in1005.4 mb 0.00 in0.0 mm 0.00 in0.0 mm 0.00 in0.0 mm
11:00 AM 71.4°F21.9°C 50.1°F10.1°C 47% 15.2 mph NW24.5 kmh NW 26.6 mph42.8 kmh 29.69 in1005.4 mb 0.00 in0.0 mm 0.00 in0.0 mm 0.00 in0.0 mm
11:15 AM 71.8°F22.1°C 51.0°F10.6°C 48% 12.1 mph NNW19.5 kmh NNW 21.3 mph34.3 kmh 29.68 in1005.1 mb 0.00 in0.0 mm 0.00 in0.0 mm 0.00 in0.0 mm
11:30 AM 72.0°F22.2°C 51.2°F10.7°C 48% 10.7 mph NW17.2 kmh NW 18.3 mph29.5 kmh 29.68 in1005.1 mb 0.00 in0.0 mm 0.00 in0.0 mm 0.00 in0.0 mm
11:45 AM 72.5°F22.5°C 49.3°F9.6°C 44% 7.6 mph N12.2 kmh N 19.0 mph30.6 kmh 29.67 in1004.7 mb 0.00 in0.0 mm 0.00 in0.0 mm 0.00 in0.0 mm
12:00 PM 73.9°F23.3°C 48.7°F9.3°C 41% 9.8 mph WNW15.8 kmh WNW 22.1 mph35.6 kmh 29.68 in1005.1 mb 0.00 in0.0 mm 0.00 in0.0 mm 0.00 in0.0 mm
12:15 PM 73.9°F23.3°C 48.1°F8.9°C 40% 18.3 mph NW29.5 kmh NW 22.1 mph35.6 kmh 29.68 in1005.1 mb 0.00 in0.0 mm 0.00 in0.0 mm 0.00 in0.0 mm
12:30 PM 73.9°F23.3°C 48.1°F8.9°C 40% 13.0 mph NNW20.9 kmh NNW 21.3 mph34.3 kmh 29.67 in1004.7 mb 0.00 in0.0 mm 0.00 in0.0 mm 0.00 in0.0 mm
12:45 PM 73.6°F23.1°C 46.4°F8.0°C 38% 20.6 mph NW33.2 kmh NW 27.3 mph43.9 kmh 29.68 in1005.1 mb 0.00 in0.0 mm 0.00 in0.0 mm 0.00 in0.0 mm
01:00 PM 73.8°F23.2°C 47.3°F8.5°C 39% 15.9 mph NNW25.6 kmh NNW 19.7 mph31.7 kmh 29.68 in1005.1 mb 0.00 in0.0 mm 0.00 in0.0 mm 0.00 in0.0 mm
01:15 PM 73.9°F23.3°C 46.7°F8.2°C 38% 21.3 mph NNW34.3 kmh NNW 26.6 mph42.8 kmh 29.67 in1004.7 mb 0.00 in0.0 mm 0.00 in0.0 mm 0.00 in0.0 mm
01:30 PM 73.9°F23.3°C 48.1°F8.9°C 40% 12.1 mph NNW19.5 kmh NNW 25.1 mph40.4 kmh 29.67 in1004.7 mb 0.00 in0.0 mm 0.00 in0.0 mm 0.00 in0.0 mm
01:45 PM 74.1°F23.4°C 48.2°F9.0°C 40% 8.3 mph NW13.4 kmh NW 24.4 mph39.3 kmh 29.66 in1004.4 mb 0.00 in0.0 mm 0.00 in0.0 mm 0.00 in0.0 mm
02:00 PM 74.1°F23.4°C 46.9°F8.3°C 38% 12.1 mph NW19.5 kmh NW 24.4 mph39.3 kmh 29.66 in1004.4 mb 0.00 in0.0 mm 0.00 in0.0 mm 0.00 in0.0 mm
02:15 PM 73.6°F23.1°C 45.7°F7.6°C 37% 13.6 mph N21.9 kmh N 21.3 mph34.3 kmh 29.66 in1004.4 mb 0.00 in0.0 mm 0.00 in0.0 mm 0.00 in0.0 mm
02:30 PM 73.0°F22.8°C 43.0°F6.1°C 34% 15.9 mph NW25.6 kmh NW 23.5 mph37.8 kmh 29.67 in1004.7 mb 0.00 in0.0 mm 0.00 in0.0 mm 0.00 in0.0 mm
02:45 PM 72.7°F22.6°C 41.1°F5.1°C 32% 15.9 mph NW25.6 kmh NW 26.6 mph42.8 kmh 29.67 in1004.7 mb 0.00 in0.0 mm 0.00 in0.0 mm 0.00 in0.0 mm
03:00 PM 72.1°F22.3°C 43.0°F6.1°C 35% 15.9 mph NW25.6 kmh NW 28.9 mph46.5 kmh 29.67 in1004.7 mb 0.00 in0.0 mm 0.00 in0.0 mm 0.00 in0.0 mm
03:15 PM 71.8°F22.1°C 40.3°F4.6°C 32% 16.8 mph NW27.0 kmh NW 24.4 mph39.3 kmh 29.67 in1004.7 mb 0.00 in0.0 mm 0.00 in0.0 mm 0.00 in0.0 mm
03:30 PM 71.4°F21.9°C 39.2°F4.0°C 31% 17.4 mph NW28.0 kmh NW 31.1 mph50.1 kmh 29.67 in1004.7 mb 0.00 in0.0 mm 0.00 in0.0 mm 0.00 in0.0 mm
03:45 PM 71.1°F21.7°C 38.9°F3.8°C 31% 18.3 mph NW29.5 kmh NW 23.5 mph37.8 kmh 29.68 in1005.1 mb 0.00 in0.0 mm 0.00 in0.0 mm 0.00 in0.0 mm
04:00 PM 70.7°F21.5°C 38.6°F3.7°C 31% 13.0 mph N20.9 kmh N 22.8 mph36.7 kmh 29.67 in1004.7 mb 0.00 in0.0 mm 0.00 in0.0 mm 0.00 in0.0 mm
04:15 PM 70.2°F21.2°C 37.3°F2.9°C 30% 17.4 mph NNW28.0 kmh NNW 23.5 mph37.8 kmh 29.67 in1004.7 mb 0.00 in0.0 mm 0.00 in0.0 mm 0.00 in0.0 mm
04:30 PM 69.8°F21.0°C 36.9°F2.7°C 30% 13.6 mph NNW21.9 kmh NNW 31.1 mph50.1 kmh 29.68 in1005.1 mb 0.00 in0.0 mm 0.00 in0.0 mm 0.00 in0.0 mm
04:45 PM 69.4°F20.8°C 36.6°F2.6°C 30% 14.5 mph NW23.3 kmh NW 28.9 mph46.5 kmh 29.68 in1005.1 mb 0.00 in0.0 mm 0.00 in0.0 mm 0.00 in0.0 mm
05:00 PM 69.1°F20.6°C 36.3°F2.4°C 30% 14.5 mph NNW23.3 kmh NNW 22.1 mph35.6 kmh 29.68 in1005.1 mb 0.00 in0.0 mm 0.00 in0.0 mm 0.00 in0.0 mm
05:15 PM 68.4°F20.2°C 34.0°F1.1°C 28% 14.5 mph NNW23.3 kmh NNW 22.8 mph36.7 kmh 29.68 in1005.1 mb 0.00 in0.0 mm 0.00 in0.0 mm 0.00 in0.0 mm
05:30 PM 67.8°F19.9°C 35.2°F1.8°C 30% 13.6 mph NW21.9 kmh NW 21.3 mph34.3 kmh 29.68 in1005.1 mb 0.00 in0.0 mm 0.00 in0.0 mm 0.00 in0.0 mm
05:45 PM 67.1°F19.5°C 34.6°F1.4°C 30% 15.9 mph NW25.6 kmh NW 28.2 mph45.4 kmh 29.69 in1005.4 mb 0.00 in0.0 mm 0.00 in0.0 mm 0.00 in0.0 mm
06:00 PM 66.6°F19.2°C 32.4°F0.2°C 28% 7.6 mph NW12.2 kmh NW 20.6 mph33.2 kmh 29.69 in1005.4 mb 0.00 in0.0 mm 0.00 in0.0 mm 0.00 in0.0 mm
06:15 PM 65.8°F18.8°C 33.5°F0.8°C 30% 9.2 mph N14.8 kmh N 15.9 mph25.6 kmh 29.69 in1005.4 mb 0.00 in0.0 mm 0.00 in0.0 mm 0.00 in0.0 mm
06:30 PM 64.9°F18.3°C 32.7°F0.4°C 30% 7.6 mph NNW12.2 kmh NNW 11.4 mph18.3 kmh 29.70 in1005.8 mb 0.00 in0.0 mm 0.00 in0.0 mm 0.00 in0.0 mm
06:45 PM 63.9°F17.7°C 33.4°F0.8°C 32% 3.8 mph NNW6.1 kmh NNW 10.7 mph17.2 kmh 29.70 in1005.8 mb 0.00 in0.0 mm 0.00 in0.0 mm 0.00 in0.0 mm
07:00 PM 62.8°F17.1°C 35.4°F1.9°C 36% 6.0 mph NNW9.7 kmh NNW 8.3 mph13.4 kmh 29.70 in1005.8 mb 0.00 in0.0 mm 0.00 in0.0 mm 0.00 in0.0 mm
07:15 PM 61.7°F16.5°C 35.8°F2.1°C 38% 4.5 mph N7.2 kmh N 7.6 mph12.2 kmh 29.71 in1006.1 mb 0.00 in0.0 mm 0.00 in0.0 mm 0.00 in0.0 mm
07:30 PM 61.0°F16.1°C 35.2°F1.8°C 38% 4.5 mph NNW7.2 kmh NNW 9.2 mph14.8 kmh 29.72 in1006.4 mb 0.00 in0.0 mm 0.00 in0.0 mm 0.00 in0.0 mm
07:45 PM 60.3°F15.7°C 34.5°F1.4°C 38% 8.3 mph NNW13.4 kmh NNW 9.8 mph15.8 kmh 29.73 in1006.8 mb 0.00 in0.0 mm 0.00 in0.0 mm 0.00 in0.0 mm
08:00 PM 59.7°F15.4°C 34.0°F1.1°C 38% 5.4 mph N8.7 kmh N 10.7 mph17.2 kmh 29.72 in1006.4 mb 0.00 in0.0 mm 0.00 in0.0 mm 0.00 in0.0 mm
08:15 PM 58.6°F14.8°C 33.7°F0.9°C 39% 6.0 mph N9.7 kmh N 6.9 mph11.1 kmh 29.72 in1006.4 mb 0.00 in0.0 mm 0.00 in0.0 mm 0.00 in0.0 mm
08:30 PM 57.7°F14.3°C 33.6°F0.9°C 40% 3.8 mph NNW6.1 kmh NNW 6.0 mph9.7 kmh 29.73 in1006.8 mb 0.00 in0.0 mm 0.00 in0.0 mm 0.00 in0.0 mm
08:45 PM 57.0°F13.9°C 32.9°F0.5°C 40% 3.1 mph NNW5.0 kmh NNW 6.0 mph9.7 kmh 29.73 in1006.8 mb 0.00 in0.0 mm 0.00 in0.0 mm 0.00 in0.0 mm
09:00 PM 56.5°F13.6°C 33.0°F0.6°C 41% Calm Calm 4.5 mph7.2 kmh 29.74 in1007.1 mb 0.00 in0.0 mm 0.00 in0.0 mm 0.00 in0.0 mm
09:15 PM 55.4°F13.0°C 32.7°F0.4°C 42% 1.6 mph N2.6 kmh N 3.1 mph5.0 kmh 29.73 in1006.8 mb 0.00 in0.0 mm 0.00 in0.0 mm 0.00 in0.0 mm
09:30 PM 53.2°F11.8°C 35.1°F1.7°C 50% 4.5 mph N7.2 kmh N 6.0 mph9.7 kmh 29.74 in1007.1 mb 0.00 in0.0 mm 0.00 in0.0 mm 0.00 in0.0 mm
09:45 PM 52.5°F11.4°C 34.9°F1.6°C 51% 4.5 mph N7.2 kmh N 6.9 mph11.1 kmh 29.74 in1007.1 mb 0.00 in0.0 mm 0.00 in0.0 mm 0.00 in0.0 mm
10:00 PM 52.0°F11.1°C 34.4°F1.3°C 51% 3.1 mph N5.0 kmh N 4.5 mph7.2 kmh 29.74 in1007.1 mb 0.00 in0.0 mm 0.00 in0.0 mm 0.00 in0.0 mm
10:15 PM 51.3°F10.7°C 34.7°F1.5°C 53% 3.8 mph N6.1 kmh N 4.5 mph7.2 kmh 29.74 in1007.1 mb 0.00 in0.0 mm 0.00 in0.0 mm 0.00 in0.0 mm
10:30 PM 50.7°F10.4°C 34.7°F1.5°C 54% 3.1 mph N5.0 kmh N 4.5 mph7.2 kmh 29.75 in1007.5 mb 0.00 in0.0 mm 0.00 in0.0 mm 0.00 in0.0 mm
10:45 PM 50.0°F10.0°C 34.9°F1.6°C 56% 3.1 mph N5.0 kmh N 3.8 mph6.1 kmh 29.75 in1007.5 mb 0.00 in0.0 mm 0.00 in0.0 mm 0.00 in0.0 mm
11:00 PM 49.1°F9.5°C 34.9°F1.6°C 58% 2.2 mph N3.5 kmh N 3.1 mph5.0 kmh 29.75 in1007.5 mb 0.00 in0.0 mm 0.00 in0.0 mm 0.00 in0.0 mm
11:15 PM 48.4°F9.1°C 35.1°F1.7°C 60% 1.6 mph N2.6 kmh N 2.2 mph3.5 kmh 29.75 in1007.5 mb 0.00 in0.0 mm 0.00 in0.0 mm 0.00 in0.0 mm
11:30 PM 47.7°F8.7°C 34.9°F1.6°C 61% Calm Calm 1.6 mph2.6 kmh 29.76 in1007.8 mb 0.00 in0.0 mm 0.00 in0.0 mm 0.00 in0.0 mm
11:45 PM 46.8°F8.2°C 34.4°F1.3°C 62% 0.7 mph NE1.1 kmh NE 1.6 mph2.6 kmh 29.76 in1007.8 mb 0.00 in0.0 mm 0.00 in0.0 mm 0.00 in0.0 mm